This demonstration page uses our WeatherBlox Daily Observations layout. Learn more.

Left ArrowRight Arrow

34.74481, -87.66753

Hourly Observations for October 2, 2021

Temp ( °F °C ) Dew Point ( °F °C ) Humidity (%) Winds ( mph kmh ) Pressure ( in mb ) Visibility ( mi km ) Precip ( " mm )
12:53 am 00:53 Clear with Mist and Fog 68 20 64 17.8 87 87 E 3 6 30.12 1020 5 8 N/A
1:53 am 01:53 Clear with Mist and Fog 68 20 64 17.8 87 87 E 3 6 30.12 1020 5 8 N/A
2:53 am 02:53 Hazy 68 20 63 17.2 84 84 N N/A 30.12 1020 6 10 N/A
3:53 am 03:53 Clear 67 19.4 63 17.2 87 87 E 3 6 30.11 1020 7 11 N/A
4:53 am 04:53 Clear with Mist and Fog 67 19.4 63 17.2 87 87 E 5 7 30.12 1020 5 8 N/A
5:53 am 05:53 Clear 67 19.4 63 17.2 87 87 E 5 7 30.13 1020 7 11 N/A
6:53 am 06:53 Mostly Cloudy with Mist and Fog 68 20 64 17.8 87 87 E 5 7 30.14 1021 5 8 N/A
7:53 am 07:53 Hazy 69 20.6 64 17.8 84 84 ESE 5 7 30.14 1021 6 10 N/A
8:53 am 08:53 Sunny 71 21.7 65 18.3 81 81 SE 8 13 30.14 1021 7 11 N/A
9:53 am 09:53 Sunny 75 23.9 66 18.9 74 74 SSE 10 17 30.14 1021 9 14 N/A
10:53 am 10:53 Mostly Cloudy 78 25.6 66 18.9 67 67 SSE 9 15 30.14 1021 10 16 N/A
11:53 am 11:53 Mostly Cloudy 81 27.2 66 18.9 61 61 S 7 11 30.13 1020 10 16 N/A
12:53 pm 12:53 Mostly Sunny 83 28.3 67 19.4 59 59 S 9 15 30.11 1020 10 16 N/A
1:53 pm 13:53 Mostly Sunny 84 28.9 66 18.9 55 55 S 10 17 30.09 1019 10 16 N/A
2:53 pm 14:53 Partly Cloudy 83 28.3 66 18.9 57 57 S 10 17 30.06 1018 10 16 N/A
3:53 pm 15:53 Cloudy 82 27.8 67 19.4 60 60 S 7 11 30.05 1018 10 16 N/A
4:53 pm 16:53 Partly Cloudy 75 23.9 67 19.4 76 76 ESE 3 6 30.04 1017 10 16 0.00 0.00
5:53 pm 17:53 Mostly Cloudy 76 24.4 69 20.6 79 79 N N/A 30.04 1017 10 16 N/A
6:53 pm 18:53 Mostly Cloudy 75 23.9 69 20.6 82 82 N N/A 30.04 1017 10 16 N/A
7:53 pm 19:53 Mostly Cloudy 74 23.3 70 21.1 88 88 SE 5 7 30.04 1017 7 11 0.01 0.25
8:53 pm 20:53 Cloudy 75 23.9 71 21.7 88 88 SSE 3 6 30.04 1017 7 11 0.02 0.51
9:53 pm 21:53 Cloudy with Mist and Fog 74 23.3 70 21.1 88 88 ESE 3 6 30.04 1017 6 10 N/A
10:53 pm 22:53 Cloudy 75 23.9 70 21.1 84 84 S 3 6 30.04 1017 7 11 N/A
11:53 pm 23:53 Cloudy with Mist and Fog 74 23.3 70 21.1 88 88 SSE 5 7 30.03 1017 5 8 N/A

Powered by AerisWeather